Location: Burbank
(38.7788°N, 114.0429°W)
Time: 14:35:37
(UTC+00:00)

Injun/Solrad 3 - Pass Details

Date: 20 May 2026
Orbit: 867 x 989 km, 66.8° (Epoch: 8 June)

Event Time Altitude Azimuth Distance (km) Brightness Sun altitude
Rises 08:11:19 0° 321° (NW) 3,696 11.6 -30.5°
Reaches altitude 10° 08:14:11 10° 311° (NW) 2,750 10.7 -30.4°
Enters shadow 08:17:54 27° 281° (W) 1,815 9.3 -30.3°
Maximum altitude 08:19:41 31° 253° (WSW) 1,667 - -30.2°
Drops below altitude 10° 08:25:10 10° 194° (SSW) 2,726 - -29.9°
Sets 08:28:00 0° 184° (S) 3,659 - -29.8°
